Weather observations for the past three days for
Vicksburg, Vicksburg / Tallulah Regional Airport
Imperial (Metric)
Date Time (cdt) Wind (mph) Vis. (mi.) Weather Sky Cond. Temperature (ºF) Relative Humidity Wind Chill (°F) Heat Index (°F) Pressure Precipitation (in)
Air Dwpt 6 hour altimeter (in) sea level (mb) 1 hr 3 hr 6 hr
Max. Min.
22 04:53 Calm 8.00 Fair CLR 72 70 94% 30.09 1019.4
22 03:53 Calm 6.00 Fog/Mist CLR 73 71.1 94% 30.09 1019.4
22 02:53 Calm 4.00 Fog/Mist CLR 73 71.1 94% 30.08 1019.2
22 01:53 Calm 6.00 Fog/Mist CLR 73 71.1 94% 30.08 1019.2
22 00:53 Calm 5.00 Fog/Mist CLR 73.9 72 91 73.9 94% 30.09 1019.4
21 23:53 Calm 7.00 Fair CLR 75.9 73 91% 76 30.09 1019.6
21 22:53 Calm 10.00 Fair CLR 75.9 73 91% 76 30.09 1019.6
21 21:53 Calm 10.00 Fair CLR 78.1 73.9 87% 81 30.08 1019.2
21 20:53 N 3 10.00 Fair CLR 81 73.9 79% 86 30.07 1019.0
21 19:53 NE 3 10.00 Fair CLR 87.1 73.9 65% 95 30.07 1018.9
21 18:53 NE 5 10.00 Fair CLR 91 73 95 90 56% 100 30.07 1018.9
21 17:53 Calm 10.00 Fair CLR 93 72 50% 101 30.08 1019.0
21 16:53 NE 5 10.00 Fair CLR 93.9 73.9 52% 104 30.09 1019.4
21 15:53 E 6 10.00 Fair CLR 93.9 73 51% 103 30.11 1020.0
21 14:53 NE 5 10.00 Fair CLR 93.9 73 51% 103 30.12 1020.7
21 13:53 N 5 10.00 Fair CLR 93 73 52% 102 30.14 1021.3
21 12:53 Calm 10.00 Fair CLR 91 73.9 91.9 75 57% 101 30.16 1021.9
21 11:53 Calm 10.00 Partly Cloudy FEW030 FEW036 SCT070 89.1 73.9 61% 98 30.18 1022.5
21 10:53 Vrbl 5 10.00 Mostly Cloudy BKN075 87.1 75 67% 97 30.2 1023.1
21 09:53 NE 5 10.00 Mostly Cloudy BKN070 82.9 73.9 74% 89 30.2 1023.1
21 08:53 Vrbl 3 10.00 Partly Cloudy FEW065 SCT090 81 73 77% 86 30.2 1023.1
21 07:53 NE 3 10.00 Mostly Cloudy BKN070 78.1 72 82% 80 30.19 1022.9
21 06:53 Calm 10.00 Overcast BKN065 BKN080 OVC090 75 72 75 69.1 90% 74 30.18 1022.6
21 05:53 Calm 10.00 Mostly Cloudy BKN065 BKN085 72 70 94% 30.17 1022.1
21 04:53 Calm 9.00 Mostly Cloudy BKN070 70 68 93% 30.16 1021.7
21 03:53 Calm 10.00 Fair CLR 70 66.9 90% 30.16 1021.7
21 01:53 Calm 10.00 Fair CLR 71.1 66.9 87% 30.17 1022.2
21 00:53 SE 3 10.00 Fair CLR 73.9 68 88 73.9 82% 30.17 1022.1
20 23:53 Calm 10.00 Fair CLR 75.9 68 77% 77 30.17 1022.0
20 22:53 SE 3 10.00 Fair CLR 75 69.1 82% 75 30.17 1022.1
20 21:53 Calm 10.00 Fair CLR 79 69.1 72% 82 30.16 1021.8
20 20:53 E 6 10.00 Fair CLR 81 68 65% 84 30.15 1021.5
20 19:53 NE 6 10.00 Fair CLR 84 68 59% 87 30.14 1021.1
20 18:53 NE 8 10.00 A Few Clouds FEW060 88 66.9 93 88 50% 91 30.14 1021.1
20 17:53 NE 7 10.00 Fair CLR 90 70 52% 95 30.14 1021.2
20 16:53 E 7 10.00 Partly Cloudy SCT050 90 69.1 50% 95 30.15 1021.7
20 15:53 E 9 10.00 Fair CLR 91 69.1 49% 96 30.16 1021.8
20 14:53 N 6 10.00 A Few Clouds FEW055 90 72 56% 97 30.17 1022.3
20 13:53 NE 6 10.00 Fair CLR 90 73 58% 98 30.19 1022.8
20 12:53 E 5 10.00 Fair CLR 88 71.1 88 75.9 57% 94 30.2 1023.3
20 11:53 E 6 10.00 NULL NULL 87.1 72 61% 94 30.21 1023.6
20 10:53 E 6 10.00 Partly Cloudy SCT080 84 71.1 65% 89 30.21 1023.5
20 09:53 E 7 10.00 A Few Clouds FEW075 82 71.1 69% 86 30.21 1023.4
20 08:53 E 9 10.00 A Few Clouds FEW070 FEW085 81 70 69% 84 30.19 1023.0
20 07:53 E 8 10.00 A Few Clouds FEW075 79 70 74% 82 30.17 1022.2
20 06:53 NE 5 10.00 A Few Clouds FEW090 75.9 70 78.1 73.9 82% 77 30.16 1021.8
20 05:53 NE 3 10.00 A Few Clouds FEW070 75 70 84% 75 30.14 1021.3
20 04:53 NE 5 10.00 Overcast OVC060 75.9 71.1 85% 76 30.13 1020.8
20 02:53 NE 6 10.00 Fair CLR 75.9 72 88% 76 30.12 1020.6
20 01:53 NE 5 10.00 Fair CLR 77 72 85% 78 30.12 1020.6
20 00:53 E 5 10.00 Fair CLR 78.1 72 84.9 75.9 82% 80 30.12 1020.6
19 23:53 E 3 10.00 Fair CLR 78.1 73 85% 81 30.13 1020.7
19 22:53 E 3 10.00 A Few Clouds FEW075 78.1 73.9 87% 81 30.13 1020.7
19 21:53 SE 3 10.00 Fair CLR 79 73.9 85% 83 30.12 1020.5
19 20:53 E 6 10.00 Fair CLR 82 73 74% 87 30.1 1019.7
19 19:53 E 7 10.00 Fair CLR 84 73.9 72% 91 30.08 1019.0
19 18:53 E 9 10.00 A Few Clouds FEW055 84.9 73.9 91.9 84.9 70% 92 30.06 1018.4
19 17:53 NE 8 10.00 A Few Clouds FEW043 FEW050 89.1 75 63% 99 30.05 1018.1
19 16:53 E 13 10.00 Partly Cloudy FEW038 SCT060 SCT080 90 75 62% 100 30.05 1018.2
19 15:53 NE 10 10.00 Partly Cloudy FEW047 SCT060 90 73.9 59% 99 30.06 1018.3
19 14:53 NE 9 10.00 Fair CLR 91 75 59% 102 30.06 1018.6
19 13:53 NE 10 10.00 Fair CLR 90 75 62% 100 30.07 1018.9
19 12:53 NE 9 10.00 Fair CLR 89.1 73.9 89.1 78.1 61% 98 30.09 1019.5
19 11:53 Vrbl 6 10.00 Fair CLR 86 73 65% 93 30.09 1019.5
19 10:53 E 8 10.00 Fair CLR 86 72 63% 92 30.09 1019.4
19 09:53 E 9 10.00 Partly Cloudy SCT065 84 72 67% 90 30.09 1019.6
19 08:53 E 10 10.00 Fair CLR 80.1 70 71% 83 30.08 1019.2
19 07:53 E 10 10.00 Fair CLR 79 70 74% 82 30.06 1018.5
19 06:53 E 8 10.00 Fair CLR 78.1 69.1 78.1 77 74% 80 30.04 1017.6
19 05:53 E 6 10.00 Fair CLR 77 70 79% 79 30.02 1016.9
Date Time (cdt) Wind (mph) Vis. (mi.) Weather Sky Cond. Air Dwpt Max. Min. Relative Humidity Wind Chill (°F) Heat Index (°F) altimeter (in) sea level (mb) 1 hr 3 hr 6 hr
6 hour
Temperature (ºF) Pressure Precipitation (in)